Weather History for Rock Springs, WY

Change the Weather History Date:

Thursday, February 14, 2013

  Actual Average Record
Temperature  
Mean Temperature 28 °F 23 °F  
Max Temperature 34 °F 33 °F 52 °F (1981)
Min Temperature 21 °F 14 °F -6 °F (1949)
Degree Days  
Heating Degree Days 37 42  
Month to date heating degree days 528 597  
Since 1 July heating degree days 4897 5301  
Cooling Degree Days 0 0  
Month to date cooling degree days 0 0  
Year to date cooling degree days 0 0  
Moisture  
Dew Point 17 °F    
Average Humidity 66    
Maximum Humidity 81    
Minimum Humidity 51    
Precipitation  
Precipitation T in 0.01 in 0.26 in (1995)
Month to date precipitation T 0.24  
Year to date precipitation T 0.69  
Sea Level Pressure  
Sea Level Pressure 30.27 in    
Wind  
Wind Speed 19 mph (West)    
Max Wind Speed 28 mph    
Max Gust Speed 35 mph    
Visibility 10 miles    
Events      
T = Trace of Precipitation, MM = Missing Value Source: NWS Daily Summary

Daily Weather History Graph

Daily Weather History Graph

Search for Another Location

Airport:

Trip Planner

Search our weather history database for the weather conditions in past years. The results will help you decide how hot, cold, wet, or windy it might be!

Date:

Astronomy

Feb. 14, 2013 Rise Set
Actual Time 7:12 AM MST 5:48 PM MST
Civil Twilight 6:43 AM MST 6:17 PM MST
Nautical Twilight 6:11 AM MST 6:49 PM MST
Astronomical Twilight 5:39 AM MST 7:22 PM MST
Moon 9:11 AM MST (2/14) 10:59 PM MST (2/14)
Length of Visible Light 11h 33m
Length of Day
10h 36m
Waxing Crescent, 22% of the Moon is Illuminated
Feb 14
Waxing Crescent
Feb 17
First Quarter
Feb 25
Full
Mar 4
Last Quarter
Mar 11
New

Hourly Weather History & Observations

Time (MST) Temp. Windchill Dew Point Humidity Pressure Visibility Wind Dir Wind Speed Gust Speed Precip Events Conditions
12:54 AM 27.0 °F 15.2 °F 19.9 °F 75% 30.16 in 10.0 mi WSW 15.0 mph 25.3 mph N/A   Overcast
1:54 AM 27.0 °F 14.3 °F 19.9 °F 75% 30.14 in 10.0 mi WSW 17.3 mph 24.2 mph N/A   Overcast
2:54 AM 27.0 °F 12.5 °F 19.9 °F 75% 30.14 in 10.0 mi West 23.0 mph 29.9 mph N/A   Overcast
3:54 AM 26.1 °F 11.3 °F 19.9 °F 78% 30.15 in 10.0 mi West 23.0 mph 29.9 mph 0.00 in   Clear
4:54 AM 25.0 °F 9.5 °F 19.0 °F 78% 30.18 in 10.0 mi West 24.2 mph - N/A   Scattered Clouds
5:54 AM 25.0 °F 10.2 °F 19.0 °F 78% 30.20 in 10.0 mi West 21.9 mph - N/A   Overcast
6:54 AM 23.0 °F 7.6 °F 18.0 °F 81% 30.24 in 10.0 mi West 21.9 mph - N/A   Clear
7:54 AM 23.0 °F 9.2 °F 17.1 °F 78% 30.26 in 10.0 mi West 17.3 mph - N/A   Clear
8:54 AM 26.1 °F 13.1 °F 18.0 °F 71% 30.28 in 10.0 mi WSW 17.3 mph - N/A   Clear
9:54 AM 28.0 °F 15.7 °F 18.0 °F 66% 30.29 in 10.0 mi West 17.3 mph - N/A   Clear
10:54 AM 30.9 °F 20.7 °F 15.1 °F 52% 30.30 in 10.0 mi WNW 13.8 mph 20.7 mph N/A   Clear
11:54 AM 32.0 °F 22.1 °F 17.1 °F 54% 30.29 in 10.0 mi West 13.8 mph 21.9 mph N/A   Scattered Clouds
12:54 PM 30.9 °F 21.2 °F 16.0 °F 54% 30.27 in 10.0 mi WNW 12.7 mph 20.7 mph N/A   Mostly Cloudy
1:54 PM 34.0 °F 22.1 °F 18.0 °F 52% 30.24 in 10.0 mi West 21.9 mph - N/A   Overcast
2:54 PM 30.9 °F 19.1 °F 18.0 °F 59% 30.27 in 10.0 mi West 18.4 mph 24.2 mph N/A   Mostly Cloudy
3:54 PM 32.0 °F 18.6 °F 18.0 °F 56% 30.27 in 10.0 mi West 25.3 mph - N/A   Scattered Clouds
4:54 PM 30.0 °F 16.0 °F 16.0 °F 56% 30.29 in 10.0 mi West 25.3 mph 34.5 mph N/A   Clear
5:54 PM 27.0 °F 13.5 °F 15.1 °F 61% 30.31 in 10.0 mi WSW 19.6 mph - N/A   Clear
6:54 PM 25.0 °F 10.6 °F 15.1 °F 66% 30.33 in 10.0 mi West 20.7 mph - N/A   Clear
7:54 PM 24.1 °F 11.5 °F 15.1 °F 69% 30.35 in 10.0 mi WSW 15.0 mph - N/A   Clear
8:54 PM 23.0 °F 9.6 °F 15.1 °F 72% 30.36 in 10.0 mi West 16.1 mph - N/A   Overcast
9:54 PM 21.9 °F 8.2 °F 14.0 °F 72% 30.37 in 10.0 mi WSW 16.1 mph 23.0 mph N/A   Overcast
10:54 PM 21.9 °F 6.9 °F 14.0 °F 72% 30.35 in 10.0 mi WSW 19.6 mph - N/A   Scattered Clouds
11:54 PM 21.0 °F 3.9 °F 14.0 °F 74% 30.35 in 10.0 mi West 25.3 mph - N/A   Clear